Zurück zum Katalog

TITAN 34D TRANSTAGE DEB

AktivGTO
NORAD 23040·DEBRIS·🇺🇸 United States

Gestartet Sep 2, 1988 von Cape Canaveral Space Force Station

Loading…

TLE

AlterndSource: Space-Track

Epoche: Sep 14, 2026, 08:31 UTC

1 23040U 88077K   26257.35543065  .00000251  00000-0  99106-3 0  9998
2 23040  27.2647 355.3712 7302792 355.5780   0.4893  2.19069966 58801

Verfolge TITAN 34D TRANSTAGE DEB in Echtzeit mit AllMySat

Download on the App Store